Location: Zabrze
(50.3000°N, 18.7833°E)
Time: 11:26:05
(UTC+02:00)

ISS - Visible Passes

Search period start: 26 September 2018 00:00
Search period end: 06 October 2018 00:00
Orbit: 403 x 408 km, 51.6° (Epoch: 26 September)

Date Brightness Start Highest point End Pass type
(mag) Time Alt. Az. Time Alt. Az. Time Alt. Az.
26 Sep -3.9 20:12:20 10° WSW 20:15:37 73° SSE 20:16:23 48° E visible
26 Sep -0.5 21:48:55 10° W 21:49:04 11° W 21:49:04 11° W visible
27 Sep -3.5 19:20:32 10° SW 19:23:46 51° SSE 19:26:35 13° E visible
27 Sep -2.5 20:56:57 10° W 20:59:16 41° WNW 20:59:16 41° WNW visible
28 Sep -3.8 20:04:59 10° W 20:08:18 80° N 20:09:23 39° ENE visible
28 Sep -0.6 21:41:38 10° WNW 21:42:03 13° WNW 21:42:03 13° WNW visible
29 Sep -3.8 19:13:03 10° WSW 19:16:22 82° SSE 19:19:26 12° ENE visible
29 Sep -2.7 20:49:40 10° W 20:52:07 44° WNW 20:52:07 44° WNW visible
30 Sep -3.7 19:57:40 10° W 20:00:58 68° N 20:02:08 36° ENE visible
30 Sep -0.6 21:34:16 10° WNW 21:34:48 14° WNW 21:34:48 14° WNW visible
01 Oct -3.7 19:05:40 10° W 19:08:58 75° N 19:12:07 11° ENE visible
01 Oct -2.8 20:42:18 10° WNW 20:44:47 47° WNW 20:44:47 47° WNW visible
02 Oct -3.7 19:50:18 10° W 19:53:37 69° N 19:54:46 36° ENE visible
02 Oct -0.7 21:26:52 10° WNW 21:27:26 14° W 21:27:26 14° W visible
03 Oct -3.6 18:58:17 10° W 19:01:34 67° N 19:04:44 11° E visible
03 Oct -3.0 20:34:52 10° WNW 20:37:25 49° W 20:37:25 49° W visible
04 Oct -3.9 19:42:52 10° WNW 19:46:10 84° NNE 19:47:23 36° E visible
04 Oct -0.7 21:19:31 10° W 21:20:03 13° W 21:20:03 13° W visible
05 Oct -3.7 18:50:50 10° WNW 18:54:08 71° N 18:57:23 10° E visible
05 Oct -2.8 20:27:24 10° W 20:30:03 42° WSW 20:30:03 42° WSW visible
